Location: ČR
(50.0000°N, 15.0000°E)
Time: 14:00:43
(UTC+00:00)

Explorer 7 - Pass Details

Date: 24 October 2021
Orbit: 483 x 675 km, 50.3° (Epoch: 27 November)

Event Time Altitude Azimuth Distance (km) Brightness Sun altitude
Rises 20:51:15 0° 239° (WSW) 2,662 - -45.6°
Reaches altitude 10° 20:53:26 10° 235° (SW) 1,804 - -45.8°
Maximum altitude 20:57:28 57° 157° (SSE) 669 - -46.2°
Drops below altitude 10° 21:01:47 10° 79° (E) 1,930 - -46.6°
Sets 21:04:10 0° 75° (ENE) 2,869 - -46.9°
